Powrót do katalogu

STARLINK-30868

AktywnyŁącznośćVLEO
NORAD 58390·PAYLOAD·🇺🇸 United States

Wystrzelony Nov 20, 2023 z Vandenberg Space Force Base

Loading…

Następne Przeloty (najbliższe 24 godziny)

TLE

ŚwieżeSource: CelesTrak SupGP

Epoka: Sep 14, 2026, 22:42 UTC

1 58390C 23178S   26257.94631944 -.00033846  00000+0 -99927-3 0  2579
2 58390  53.1578 197.9149 0001291  91.5125 318.6381 15.34430361    13

Śledź STARLINK-30868 w czasie rzeczywistym z AllMySat

Download on the App Store